| time (UTC) | temp C | wind direction | speed KPH | gust KPH | rain 1hr cm | rain 24hr cm | rain mn cm | humidity % | barometer mb |
| 20260903235018 | 38 | 0.0 | 0.0 | 0.00 | 0.00 | 0.00 | 25 | 1007.9 | |
| 20260903234017 | 38 | 0.0 | 0.0 | 0.00 | 0.00 | 0.00 | 26 | 1007.9 | |
| 20260903233016 | 38 | 0.0 | 0.0 | 0.00 | 0.00 | 0.00 | 25 | 1008.2 | |
| 20260903232015 | 38 | 0.0 | 0.0 | 0.00 | 0.00 | 0.00 | 25 | 1008.2 | |
| 20260903230912 | 38 | 0.0 | 0.0 | 0.00 | 0.00 | 0.00 | 25 | 1008.3 | |
| 20260903225911 | 40 | 0.0 | 0.0 | 0.00 | 0.00 | 0.00 | 24 | 1008.3 | |
| 20260903224911 | 40 | 0.0 | 0.0 | 0.00 | 0.00 | 0.00 | 24 | 1008.3 | |
| 20260903223910 | 40 | 0.0 | 0.0 | 0.00 | 0.00 | 0.00 | 24 | 1008.7 | |
| 20260903222909 | 40 | 0.0 | 0.0 | 0.00 | 0.00 | 0.00 | 24 | 1008.7 | |
| 20260903221908 | 40 | 0.0 | 0.0 | 0.00 | 0.00 | 0.00 | 24 | 1008.7 | |
| 20260903220907 | 40 | 0.0 | 0.0 | 0.00 | 0.00 | 0.00 | 24 | 1009.1 | |
| 20260903215907 | 40 | 0.0 | 0.0 | 0.00 | 0.00 | 0.00 | 24 | 1009.4 | |
| 20260903214906 | 40 | 0.0 | 0.0 | 0.00 | 0.00 | 0.00 | 24 | 1009.4 | |
| 20260903213905 | 39 | 0.0 | 0.0 | 0.00 | 0.00 | 0.00 | 24 | 1009.4 | |
| 20260903212802 | 39 | 0.0 | 0.0 | 0.00 | 0.00 | 0.00 | 24 | 1009.7 | |
| 20260903211627 | 39 | 0.0 | 0.0 | 0.00 | 0.00 | 0.00 | 24 | 1010.0 | |
| 20260903210626 | 39 | 0.0 | 0.0 | 0.00 | 0.00 | 0.00 | 24 | 1010.0 | |
| 20260903205625 | 38 | 0.0 | 0.0 | 0.00 | 0.00 | 0.00 | 25 | 1010.4 | |
| 20260903204625 | 39 | 0.0 | 0.0 | 0.00 | 0.00 | 0.00 | 25 | 1010.4 | |
| 20260903203624 | 38 | 0.0 | 0.0 | 0.00 | 0.00 | 0.00 | 25 | 1010.4 | |
| 20260903202552 | 38 | 0.0 | 0.0 | 0.00 | 0.00 | 0.00 | 25 | 1010.7 | |
| 20260903201551 | 38 | 0.0 | 0.0 | 0.00 | 0.00 | 0.00 | 25 | 1011.1 | |
| 20260903200550 | 38 | 0.0 | 0.0 | 0.00 | 0.00 | 0.00 | 25 | 1011.0 | |
| 20260903195548 | 38 | 0.0 | 0.0 | 0.00 | 0.00 | 0.00 | 25 | 1011.0 | |
| 20260903194547 | 37 | 0.0 | 0.0 | 0.00 | 0.00 | 0.00 | 28 | 1011.0 | |
| 20260903193546 | 37 | 0.0 | 0.0 | 0.00 | 0.00 | 0.00 | 28 | 1011.0 | |
| 20260903192545 | 37 | 0.0 | 0.0 | 0.00 | 0.00 | 0.00 | 28 | 1011.4 | |
| 20260903191544 | 37 | 0.0 | 0.0 | 0.00 | 0.00 | 0.00 | 28 | 1011.7 | |
| 20260903190543 | 37 | 0.0 | 0.0 | 0.00 | 0.00 | 0.00 | 28 | 1011.7 | |
| 20260903185542 | 37 | 0.0 | 0.0 | 0.00 | 0.00 | 0.00 | 29 | 1012.1 | |
| 20260903184542 | 37 | 0.0 | 0.0 | 0.00 | 0.00 | 0.00 | 28 | 1012.1 | |
| 20260903183541 | 37 | 0.0 | 0.0 | 0.00 | 0.00 | 0.00 | 28 | 1012.4 | |
| 20260903182540 | 37 | 0.0 | 0.0 | 0.00 | 0.00 | 0.00 | 28 | 1012.4 | |
| 20260903181507 | 37 | 0.0 | 0.0 | 0.00 | 0.00 | 0.00 | 28 | 1012.8 | |
| 20260903180506 | 36 | 0.0 | 0.0 | 0.00 | 0.00 | 0.00 | 30 | 1012.8 | |
| 20260903175505 | 36 | 0.0 | 0.0 | 0.00 | 0.00 | 0.00 | 30 | 1012.8 | |
| 20260903174433 | 36 | 0.0 | 0.0 | 0.00 | 0.00 | 0.00 | 32 | 1013.1 | |
| 20260903173432 | 36 | 0.0 | 0.0 | 0.00 | 0.00 | 0.00 | 32 | 1013.1 | |
| 20260903172431 | 35 | 0.0 | 0.0 | 0.00 | 0.00 | 0.00 | 34 | 1013.1 | |
| 20260903171430 | 35 | 0.0 | 0.0 | 0.00 | 0.00 | 0.00 | 35 | 1013.1 | |
| 20260903170430 | 35 | 0.0 | 0.0 | 0.00 | 0.00 | 0.00 | 36 | 1013.1 | |
| 20260903165429 | 34 | 0.0 | 0.0 | 0.00 | 0.00 | 0.00 | 36 | 1013.1 | |
| 20260903164427 | 34 | 0.0 | 0.0 | 0.00 | 0.00 | 0.00 | 36 | 1013.1 | |
| 20260903163427 | 34 | 0.0 | 0.0 | 0.00 | 0.00 | 0.00 | 37 | 1013.1 | |
| 20260903162425 | 34 | 0.0 | 0.0 | 0.00 | 0.00 | 0.00 | 37 | 1013.4 | |
| 20260903161425 | 34 | 0.0 | 0.0 | 0.00 | 0.00 | 0.00 | 37 | 1013.1 | |
| 20260903160424 | 33 | 0.0 | 0.0 | 0.00 | 0.00 | 0.00 | 38 | 1013.1 | |
| 20260903155321 | 33 | 0.0 | 0.0 | 0.00 | 0.00 | 0.00 | 39 | 1013.4 | |
| 20260903154320 | 33 | 0.0 | 0.0 | 0.00 | 0.00 | 0.00 | 40 | 1013.4 | |
| 20260903153319 | 33 | 0.0 | 0.0 | 0.00 | 0.00 | 0.00 | 40 | 1013.4 | |
| 20260903152318 | 32 | 0.0 | 0.0 | 0.00 | 0.00 | 0.00 | 40 | 1013.4 | |
| 20260903151318 | 32 | 0.0 | 0.0 | 0.00 | 0.00 | 0.00 | 42 | 1013.4 | |
| 20260903150317 | 32 | 0.0 | 0.0 | 0.00 | 0.00 | 0.00 | 42 | 1013.3 | |
| 20260903145316 | 31 | 0.0 | 0.0 | 0.00 | 0.00 | 0.00 | 43 | 1013.3 | |
| 20260903144315 | 31 | 0.0 | 0.0 | 0.00 | 0.00 | 0.00 | 43 | 1013.3 | |
| 20260903143314 | 31 | 0.0 | 0.0 | 0.00 | 0.00 | 0.00 | 43 | 1013.3 | |
| 20260903142313 | 31 | 0.0 | 0.0 | 0.00 | 0.00 | 0.00 | 44 | 1013.3 | |
| 20260903141312 | 31 | 0.0 | 0.0 | 0.00 | 0.00 | 0.00 | 44 | 1013.3 | |
| 20260903140311 | 30 | 0.0 | 0.0 | 0.00 | 0.00 | 0.00 | 44 | 1012.9 | |
| 20260903135311 | 29 | 0.0 | 0.0 | 0.00 | 0.00 | 0.00 | 45 | 1012.8 | |
| 20260903134310 | 28 | 0.0 | 0.0 | 0.00 | 0.00 | 0.00 | 45 | 1012.5 | |
| 20260903133309 | 28 | 0.0 | 0.0 | 0.00 | 0.00 | 0.00 | 45 | 1012.5 | |
| 20260903132308 | 28 | 0.0 | 0.0 | 0.00 | 0.00 | 0.00 | 44 | 1012.1 | |
| 20260903131307 | 28 | 0.0 | 0.0 | 0.00 | 0.00 | 0.00 | 44 | 1012.2 | |
| 20260903130306 | 28 | 0.0 | 0.0 | 0.00 | 0.00 | 0.00 | 45 | 1012.2 | |
| 20260903125306 | 28 | 0.0 | 0.0 | 0.00 | 0.00 | 0.00 | 44 | 1012.2 | |
| 20260903124233 | 29 | 0.0 | 0.0 | 0.00 | 0.00 | 0.00 | 44 | 1011.9 | |
| 20260903123233 | 29 | 0.0 | 0.0 | 0.00 | 0.00 | 0.00 | 44 | 1011.9 | |
| 20260903122231 | 29 | 0.0 | 0.0 | 0.00 | 0.00 | 0.00 | 43 | 1011.9 | |
| 20260903121128 | 29 | 0.0 | 0.0 | 0.00 | 0.00 | 0.00 | 42 | 1011.9 | |
| 20260903120057 | 29 | 0.0 | 0.0 | 0.00 | 0.00 | 0.00 | 42 | 1011.6 | |
| 20260903115055 | 30 | 0.0 | 0.0 | 0.00 | 0.00 | 0.00 | 41 | 1011.6 | |
| 20260903114055 | 30 | 0.0 | 0.0 | 0.00 | 0.00 | 0.00 | 40 | 1011.6 | |
| 20260903113054 | 29 | 0.0 | 0.0 | 0.00 | 0.00 | 0.00 | 40 | 1011.6 | |
| 20260903112053 | 29 | 0.0 | 0.0 | 0.00 | 0.00 | 0.00 | 39 | 1011.6 | |
| 20260903111052 | 30 | 0.0 | 0.0 | 0.00 | 0.00 | 0.00 | 36 | 1011.6 | |
| 20260903110051 | 30 | 0.0 | 0.0 | 0.00 | 0.00 | 0.00 | 35 | 1011.6 | |
| 20260903105049 | 30 | 0.0 | 0.0 | 0.00 | 0.00 | 0.00 | 35 | 1011.3 | |
| 20260903104048 | 30 | 0.0 | 0.0 | 0.00 | 0.00 | 0.00 | 33 | 1011.3 | |
| 20260903103048 | 30 | 0.0 | 0.0 | 0.00 | 0.00 | 0.00 | 32 | 1011.6 | |
| 20260903102047 | 30 | 0.0 | 0.0 | 0.00 | 0.00 | 0.00 | 32 | 1011.6 | |
| 20260903101015 | 31 | 0.0 | 0.0 | 0.00 | 0.00 | 0.00 | 30 | 1011.3 | |
| 20260903095943 | 31 | 0.0 | 0.0 | 0.00 | 0.00 | 0.00 | 30 | 1011.7 | |
| 20260903094941 | 31 | 0.0 | 0.0 | 0.00 | 0.00 | 0.00 | 29 | 1011.7 | |
| 20260903093940 | 31 | 0.0 | 0.0 | 0.00 | 0.00 | 0.00 | 28 | 1011.7 | |
| 20260903092939 | 31 | 0.0 | 0.0 | 0.00 | 0.00 | 0.00 | 26 | 1011.6 | |
| 20260903091939 | 31 | 0.0 | 0.0 | 0.00 | 0.00 | 0.00 | 25 | 1011.7 | |
| 20260903090907 | 31 | 0.0 | 0.0 | 0.00 | 0.00 | 0.00 | 25 | 1011.7 | |
| 20260903085906 | 31 | 0.0 | 0.0 | 0.00 | 0.00 | 0.00 | 25 | 1011.7 | |
| 20260903084905 | 31 | 0.0 | 0.0 | 0.00 | 0.00 | 0.00 | 25 | 1011.3 | |
| 20260903081423 | 31 | 0.0 | 0.0 | 0.00 | 0.00 | 0.00 | 24 | 1011.4 | |
| 20260903080422 | 31 | 0.0 | 0.0 | 0.00 | 0.00 | 0.00 | 24 | 1011.3 | |
| 20260903075421 | 31 | 0.0 | 0.0 | 0.00 | 0.00 | 0.00 | 25 | 1011.3 | |
| 20260903074420 | 32 | 0.0 | 0.0 | 0.00 | 0.00 | 0.00 | 24 | 1011.3 | |
| 20260903073348 | 32 | 0.0 | 0.0 | 0.00 | 0.00 | 0.00 | 25 | 1011.3 | |
| 20260903072348 | 32 | 0.0 | 0.0 | 0.00 | 0.00 | 0.00 | 25 | 1011.4 | |
| 20260903071347 | 32 | 0.0 | 0.0 | 0.00 | 0.00 | 0.00 | 26 | 1011.4 | |
| 20260903070346 | 32 | 0.0 | 0.0 | 0.00 | 0.00 | 0.00 | 26 | 1011.4 | |
| 20260903065314 | 32 | 0.0 | 0.0 | 0.00 | 0.00 | 0.00 | 27 | 1011.4 | |
| 20260903064313 | 33 | 0.0 | 0.0 | 0.00 | 0.00 | 0.00 | 27 | 1011.4 | |
| 20260903063312 | 33 | 0.0 | 0.0 | 0.00 | 0.00 | 0.00 | 27 | 1011.1 | |
| 20260903062240 | 33 | 0.0 | 0.0 | 0.00 | 0.00 | 0.00 | 27 | 1011.1 | |
| 20260903061239 | 34 | 0.0 | 0.0 | 0.00 | 0.00 | 0.00 | 27 | 1011.4 | |
| 20260903060239 | 34 | 0.0 | 0.0 | 0.00 | 0.00 | 0.00 | 28 | 1011.4 | |
| 20260903055238 | 34 | 0.0 | 0.0 | 0.00 | 0.00 | 0.00 | 29 | 1011.5 | |
| 20260903051443 | 35 | 0.0 | 0.0 | 0.00 | 0.00 | 0.00 | 31 | 1011.4 | |
| 20260903050442 | 35 | 0.0 | 0.0 | 0.00 | 0.00 | 0.00 | 31 | 1011.1 | |
| 20260903045409 | 35 | 0.0 | 0.0 | 0.00 | 0.00 | 0.00 | 30 | 1011.1 | |
| 20260903044409 | 35 | 0.0 | 0.0 | 0.00 | 0.00 | 0.00 | 30 | 1011.1 | |
| 20260903043408 | 35 | 0.0 | 0.0 | 0.00 | 0.00 | 0.00 | 30 | 1011.1 | |
| 20260903042407 | 35 | 0.0 | 0.0 | 0.00 | 0.00 | 0.00 | 30 | 1011.1 | |
| 20260903041406 | 36 | 0.0 | 0.0 | 0.00 | 0.00 | 0.00 | 29 | 1011.1 | |
| 20260903040334 | 36 | 0.0 | 0.0 | 0.00 | 0.00 | 0.00 | 29 | 1011.1 | |
| 20260903035302 | 36 | 0.0 | 0.0 | 0.00 | 0.00 | 0.00 | 29 | 1011.0 | |
| 20260903034300 | 36 | 0.0 | 0.0 | 0.00 | 0.00 | 0.00 | 29 | 1010.7 | |
| 20260903033229 | 36 | 0.0 | 0.0 | 0.00 | 0.00 | 0.00 | 29 | 1010.6 | |
| 20260903032228 | 36 | 0.0 | 0.0 | 0.00 | 0.00 | 0.00 | 28 | 1010.6 | |
| 20260903031125 | 36 | 0.0 | 0.0 | 0.00 | 0.00 | 0.00 | 28 | 1010.3 | |
| 20260903030124 | 36 | 0.0 | 0.0 | 0.00 | 0.00 | 0.00 | 28 | 1010.2 | |
| 20260903025123 | 36 | 0.0 | 0.0 | 0.00 | 0.00 | 0.00 | 28 | 1010.2 | |
| 20260903024122 | 36 | 0.0 | 0.0 | 0.00 | 0.00 | 0.00 | 27 | 1010.2 | |
| 20260903023122 | 36 | 0.0 | 0.0 | 0.00 | 0.00 | 0.00 | 27 | 1010.2 | |
| 20260903022121 | 37 | 0.0 | 0.0 | 0.00 | 0.00 | 0.00 | 27 | 1010.2 | |
| 20260903021120 | 37 | 0.0 | 0.0 | 0.00 | 0.00 | 0.00 | 27 | 1009.9 | |
| 20260903020017 | 37 | 0.0 | 0.0 | 0.00 | 0.00 | 0.00 | 26 | 1009.8 | |
| 20260903014945 | 37 | 0.0 | 0.0 | 0.00 | 0.00 | 0.00 | 26 | 1009.8 | |
| 20260903013944 | 37 | 0.0 | 0.0 | 0.00 | 0.00 | 0.00 | 26 | 1009.8 | |
| 20260903012943 | 37 | 0.0 | 0.0 | 0.00 | 0.00 | 0.00 | 26 | 1009.5 | |
| 20260903011912 | 37 | 0.0 | 0.0 | 0.00 | 0.00 | 0.00 | 26 | 1009.5 | |
| 20260903010911 | 38 | 0.0 | 0.0 | 0.00 | 0.00 | 0.00 | 26 | 1009.5 | |
| 20260903005910 | 38 | 0.0 | 0.0 | 0.00 | 0.00 | 0.00 | 26 | 1009.6 | |
| 20260903004909 | 38 | 0.0 | 0.0 | 0.00 | 0.00 | 0.00 | 25 | 1009.6 | |
| 20260903003908 | 38 | 0.0 | 0.0 | 0.00 | 0.00 | 0.00 | 25 | 1009.5 | |
| 20260903002907 | 38 | 0.0 | 0.0 | 0.00 | 0.00 | 0.00 | 26 | 1009.9 | |
| 20260903001906 | 38 | 0.0 | 0.0 | 0.00 | 0.00 | 0.00 | 25 | 1009.6 | |
| 20260903000905 | 38 | 0.0 | 0.0 | 0.00 | 0.00 | 0.00 | 25 | 1009.9 | |
| 20260902235833 | 39 | 0.0 | 0.0 | 0.00 | 0.00 | 0.00 | 24 | 1010.0 |